Regional Weather Roundup
Issued by NWS Northern Indiana

Home | Current Version | Previous Version | Text Only | Print | Product List | Glossary On
Versions: 1 2 3 4 5 6 7 8 9 10 11 12 13 14 15 16 17 18 19 20 21 22 23 24 25 26 27 28 29 30 31 32 33 34 35 36 37 38 39 40 41 42 43 44 45 46 47 48 49 50
000
ASUS43 KIWX 302210
RWRIWX

KIWX WEATHER ROUNDUP
NATIONAL WEATHER SERVICE NORTHERN INDIANA
600 PM EDT THU MAR 30 2017

NOTE: "FAIR" INDICATES FEW OR NO CLOUDS BELOW 12,000 FEET WITH NO
SIGNIFICANT WEATHER AND/OR OBSTRUCTIONS TO VISIBILITY.

* THESE STATIONS ARE NOT UNDER NWS QUALITY CONTROL. THEY ALSO MAY NOT
  REPORT WEATHER SUCH AS PRECIPITATION OR FOG.

INZ001>027-302300-
NORTHERN INDIANA

CITY           SKY/WX    TMP DP  RH WIND       PRES   REMARKS
GARY*          CLOUDY    45  45 100 N10       29.60S FOG
VALPARAISO     CLOUDY    50  47  89 E16       29.59S
MICHIGAN CITY* CLOUDY    48  48 100 E7        29.59F
LAPORTE*       CLOUDY    47  46  93 E18G24    29.59F
KNOX*          CLOUDY    46  36  66 E12       29.59F
SOUTH BEND     LGT RAIN  45  32  60 E14G22    29.63F
ELKHART*       CLOUDY    45  41  87 E15       29.64F
GOSHEN         LGT RAIN  46  41  82 E9        29.65R
MONTICELLO*    PTSUNNY   55  51  88 E5        29.54F
LOGANSPORT*    MOSUNNY   54  50  87 E10       29.57F
ROCHESTER*     PTSUNNY   54  50  87 E12       29.58F
WARSAW*        LGT RAIN  46  45  93 NE6       29.62R
ANGOLA*        CLOUDY    41  32  70 E14       29.66F
FORT WAYNE     TSTM      48  45  89 NE17      29.62R
HUNTINGTON*    TSTM      48  47  95 E10       29.62R VSB 1
PERU/GRISSOM   PTSUNNY   55  55 100 E13       29.56F
MARION*        PTSUNNY   54  51  90 NE12      29.60S FOG

$$
INZ028>050-302300-
CENTRAL INDIANA

CITY           SKY/WX    TMP DP  RH WIND       PRES   REMARKS
LAFAYETTE      HVY RAIN  57  55  93 CALM      29.54F FOG
KOKOMO*        CLOUDY    55  53  93 E13       29.58S
MUNCIE*        CLOUDY    61  55  81 E10       29.58R
INDIANAPOLIS   CLOUDY    71  55  56 SW14      29.53F THUNDER

$$
MIZ043>046-050>051-056>058-064>065-071>073-077>080-302300-
SOUTHWEST LOWER MICHIGAN

CITY           SKY/WX    TMP DP  RH WIND       PRES   REMARKS
BATTLE CREEK   LGT RAIN  41  39  93 NW18      29.77R FOG
BENTON HARBOR  CLOUDY    45  41  86 E17G24    29.60F
COLDWATER*     LGT RAIN  42  40  93 E13       29.67S
HILLSDALE*     CLOUDY    37  36  93 E16G25    29.67F
HOLLAND        HVY RAIN  39  38  96 E10       29.74F FOG
GRAND RAPIDS   TSTM      38  38 100 CALM      29.81R FOG
KALAMAZOO      RAIN      41  38  89 VRB6G20   29.69F FOG
STURGIS*       CLOUDY    41  40  95 NE7       29.68R
THREE RIVERS*  CLOUDY    42  40  93 NE7       29.70R

$$
OHZ001>008-015>018-024>025-302300-
NORTHWEST OHIO

CITY           SKY/WX    TMP DP  RH WIND       PRES   REMARKS
WAUSEON*       CLOUDY    41  41 100 E18       29.68F
DEFIANCE       CLOUDY    44  42  93 NE14      29.66F
FINDLAY        LGT RAIN  49  44  83 E18       29.65F
TOLEDO EXPRESS CLOUDY    41  41 100 E14       29.70F
TOLEDO METCALF CLOUDY    42  41  96 E15G21    29.71F
LIMA           CLOUDY    52  49  89 E16       29.63F

$$
AND FOR LAKE MICHIGAN COASTAL AND OPEN LAKE BUOY OBSERVATIONS

STATION/POSITION TEMP    WIND        PRES    VSBY  WAVE
                 AIR SEA DIR/SP/G                  HT/PER
                 (F)     (DEG/KT/KT) (MB)    (MI)  (FT/S)
CALUMET HARBOR    42      20/  9/ 11 1002.0F
MICHIGAN CITY     47     100/ 15/ 19   N/A
BURNS HARBOR      49      90/  8/ 14 1002.7R

$$
&&




USA.gov is the U.S. government's official web portal to all federal, state and local government web resources and services.